[[{"header":{"parameterUnit":"m.s-1","parameterCategory":1,"la1":30.2991,"la2":30.254,"lo1":-89.0895,"lo2":-89.0444,"dy":0.0017,"dx":0.0017,"nx":28,"ny":28,"refTime":"2024-05-09T21:00:00:Z","depth":0,"parameterNumber":2,"parameterNumberName":"U-component_of_WINDS"},"data":[0,0,0,0,0,0,0,0,0,0,0,0,0,0,0,0,0,0,0,0,0,0,0,0,0,0,0,0,0,0,0,0,0,0,0,0,0,0,0,0,0,0,0,0,0,0,0,0,0,0,0,0,0,0,0,0,0,0,0.7703,0.7705,0,0.7848,0.7849,0.7851,0.7925,0.7925,0.7925,0.7925,0.8074,0.8077,0.8081,0,0,0,0,0,0,0,0,0,0,0,0,0,0.7492,0.7495,0.7703,0.7705,0.7707,0.7848,0.785,0.7852,0.7925,0.7925,0.7925,0.7925,0.8072,0.8077,0.8082,0,0,0,0,0,0,0,0,0,0,0,0,0,0.7605,0.7496,0.7703,0.7761,0.7767,0.7847,0.785,0.7852,0.7925,0.7925,0.7925,0.7925,0.8071,0.8076,0.8082,0.8116,0,0,0.81,0.8103,0,0,0,0,0,0,0,0,0.7598,0.7612,0.775,0.7757,0.7764,0.7869,0.7829,0.7941,0.7925,0.7865,0.7925,0.7925,0.8005,0.8017,0.8043,0.8123,0.8129,0.8101,0.8104,0.8107,0.8108,0,0,0,0,0,0,0,0.759,0.7606,0.7761,0.7752,0.7761,0.7779,0.7795,0.7851,0.7933,0.787,0.7876,0.7892,0.8009,0.8038,0.8047,0.8132,0.81,0.8106,0.8109,0.8111,0.8246,0.8247,0,0,0,0,0,0,0.7573,0.7599,0.7756,0.7765,0.768,0.7783,0.7801,0.7835,0.7932,0.7947,0.7892,0.7895,0.8028,0.8041,0.8053,0.8099,0.8107,0.8112,0.8115,0.8246,0.8246,0.8247,0,0,0,0,0,0,0.7568,0.7586,0.775,0.7684,0.7706,0.7787,0.7824,0.7838,0.7866,0.7949,0.7964,0.7906,0.8028,0.8045,0.81,0.8105,0.8115,0.812,0.8246,0.8246,0.8247,0.8191,0,0,0,0,0,0,0.7562,0.7584,0.7598,0.7684,0.7709,0.7794,0.7824,0.784,0.7876,0.7882,0.7966,0.798,0.803,0.8091,0.8106,0.8113,0.8124,0.8246,0.8246,0.8246,0.8193,0.819,0.8187,0,0,0,0,0,0.7554,0.7576,0.7598,0.7616,0.7728,0.7794,0.7809,0.7866,0.7876,0.7891,0.7944,0.7977,0.8102,0.8096,0.8113,0.8123,0.8246,0.8246,0.8246,0.8194,0.819,0.8187,0,0,0,0,0,0,0.7489,0.7589,0.7614,0.7665,0.772,0.7807,0.7827,0.7859,0.7914,0.7917,0.7985,0.8003,0.8052,0.8093,0.8084,0.8161,0.8178,0.8181,0.8132,0.8129,0.8125,0.8114,0.8129,0,0,0,0,0,0.7481,0.7526,0.7611,0.7648,0.7674,0.7745,0.7777,0.7815,0.7876,0.79,0.7957,0.8015,0.8067,0.81,0.8153,0.8199,0.8219,0.8215,0.8211,0.8208,0.8211,0.8238,0.8237,0.8247,0.8247,0.8247,0,0,0.7464,0.7524,0.7549,0.7636,0.7684,0.773,0.7765,0.7812,0.7846,0.7907,0.7963,0.8006,0.8075,0.8126,0.8151,0.8162,0.8212,0.8208,0.8205,0.821,0.8238,0.8237,0.8236,0.8247,0.8247,0.8247,0,0,0.7457,0.7507,0.7543,0.759,0.7662,0.7709,0.7717,0.7799,0.783,0.7887,0.7934,0.7976,0.8065,0.8112,0.8147,0.8158,0.8191,0.8173,0.8156,0.8182,0.8181,0.8181,0.8185,0.8185,0.8175,0.8175,0.8175,0,0.7427,0.7497,0.7557,0.7602,0.7639,0.7696,0.7733,0.7776,0.7861,0.7885,0.7896,0.8009,0.8059,0.8122,0.8124,0.8151,0.8163,0.8164,0.8177,0.8177,0.8177,0.8182,0.8183,0.8172,0.8173,0.8173,0.8173,0,0.7457,0.7505,0.7526,0.7606,0.7646,0.7686,0.7752,0.7785,0.782,0.7866,0.7923,0.7986,0.8052,0.807,0.8105,0.8137,0.8142,0.8163,0.8182,0.8173,0.8178,0.818,0.8169,0.817,0.817,0.8171,0,0,0.7412,0.7526,0.7532,0.757,0.7653,0.7692,0.7735,0.78,0.7827,0.7884,0.7921,0.7995,0.8016,0.8056,0.8097,0.812,0.8124,0.8139,0.8142,0.8134,0.8163,0.8146,0.8147,0.8146,0.8147,0.8147,0.8157,0,0.7417,0.7496,0.7552,0.761,0.7655,0.771,0.7748,0.7803,0.7847,0.7892,0.7941,0.7992,0.8015,0.804,0.8065,0.8118,0.813,0.8118,0.8182,0.8183,0.8162,0.815,0.8132,0.8138,0.816,0.816,0.816,0,0.7432,0.7487,0.755,0.7629,0.765,0.7682,0.7746,0.7789,0.7853,0.7883,0.7928,0.797,0.8017,0.8031,0.8098,0.8088,0.8118,0.8148,0.8149,0.8157,0.8171,0.8157,0.8142,0.8143,0.8164,0.8164,0.8164,0,0.7393,0.7483,0.7532,0.7563,0.7656,0.7677,0.7717,0.7781,0.7817,0.7873,0.7896,0.7957,0.799,0.8036,0.8093,0.8098,0.8154,0.8172,0.818,0.8179,0.819,0.8188,0.8179,0.8209,0.8209,0.8209,0.8209,0,0.7392,0.7428,0.7516,0.7546,0.7588,0.7651,0.7691,0.7736,0.7792,0.7832,0.7884,0.792,0.7993,0.8038,0.8083,0.8131,0.8146,0.8172,0.8184,0.8167,0.8164,0.8188,0.8188,0.8209,0.8209,0.8209,0.8209,0,0.7355,0.7416,0.7473,0.7556,0.7578,0.7605,0.7677,0.7709,0.7755,0.7805,0.782,0.7894,0.795,0.8011,0.8088,0.8118,0.8164,0.818,0.8142,0.8148,0.8153,0.8151,0.8158,0.8162,0.8189,0.8188,0.8188,0,0.735,0.7379,0.7466,0.7496,0.7535,0.7583,0.7619,0.7683,0.7719,0.7794,0.7816,0.7876,0.7927,0.8013,0.8074,0.8132,0.8151,0.8149,0.816,0.8143,0.8151,0.8148,0.8151,0.8146,0.8145,0.8144,0.8144,0,0.7335,0.7363,0.7414,0.7475,0.7517,0.7568,0.7621,0.7643,0.7717,0.7754,0.7812,0.7852,0.793,0.7988,0.8054,0.8096,0.8132,0.814,0.8145,0.8129,0.8105,0.8118,0.8133,0.814,0.814,0.814,0.8141,0.8141,0.7314,0.7342,0.7408,0.7462,0.7509,0.7557,0.7591,0.7642,0.7691,0.776,0.7794,0.7851,0.7915,0.8008,0.8048,0.8094,0.8105,0.8112,0.8114,0.8115,0.811,0.8098,0.8106,0.8106,0.8106,0.8107,0.8107,0,0.7301,0.7346,0.7395,0.7468,0.7511,0.7541,0.7602,0.7636,0.7685,0.7742,0.7791,0.7857,0.7914,0.7979,0.804,0.8064,0.8083,0.8078,0.8077,0.8086,0.8097,0.8086,0.8063,0.8063,0.8063,0.8063,0.8063,0.8063,0.7299,0.7348,0.7385,0.7458,0.7503,0.7559,0.7591,0.7636,0.7681,0.7753,0.7801,0.7843,0.7903,0.7969,0.8022,0.804,0.806,0.8051,0.8073,0.8082,0.8085,0.8089,0.8079,0.8054,0.8054,0.8059,0.8059,0.8059]},{"header":{"parameterUnit":"m.s-1","parameterCategory":1,"la1":30.2991,"la2":30.254,"lo1":-89.0895,"lo2":-89.0444,"dy":0.0017,"dx":0.0017,"nx":28,"ny":28,"refTime":"2024-05-09T21:00:00:Z","depth":0,"parameterNumber":3,"parameterNumberName":"V-component_of_WINDS"},"data":[0,0,0,0,0,0,0,0,0,0,0,0,0,0,0,0,0,0,0,0,0,0,0,0,0,0,0,0,0,0,0,0,0,0,0,0,0,0,0,0,0,0,0,0,0,0,0,0,0,0,0,0,0,0,0,0,0,0,0.5836,0.5836,0,0.588,0.588,0.5881,0.5857,0.5856,0.5855,0.5854,0.5899,0.5901,0.5903,0,0,0,0,0,0,0,0,0,0,0,0,0,0.5729,0.5731,0.5836,0.5836,0.5837,0.588,0.588,0.5881,0.5858,0.5856,0.5855,0.5853,0.5898,0.5901,0.5904,0,0,0,0,0,0,0,0,0,0,0,0,0,0.5775,0.5732,0.5836,0.583,0.583,0.588,0.588,0.5881,0.5858,0.5856,0.5854,0.5853,0.5897,0.5901,0.5904,0.5961,0,0,0.5915,0.5916,0,0,0,0,0,0,0,0,0.5772,0.5779,0.5831,0.5831,0.5831,0.5861,0.5859,0.5908,0.5858,0.5847,0.5854,0.5852,0.5888,0.5892,0.5904,0.5963,0.5965,0.5915,0.5917,0.5918,0.5919,0,0,0,0,0,0,0,0.5769,0.5776,0.5853,0.5831,0.5831,0.5825,0.583,0.5868,0.5877,0.5848,0.5847,0.5852,0.5887,0.5901,0.5905,0.5966,0.5915,0.5918,0.592,0.5921,0.6071,0.6072,0,0,0,0,0,0,0.5766,0.5774,0.5852,0.5855,0.5796,0.5828,0.5833,0.5853,0.5877,0.5878,0.5854,0.5851,0.5896,0.5901,0.5907,0.5972,0.5918,0.5922,0.5924,0.6069,0.6071,0.6073,0,0,0,0,0,0,0.5764,0.5773,0.585,0.5814,0.5823,0.5832,0.5855,0.5855,0.5868,0.5881,0.5882,0.5866,0.5895,0.5902,0.5947,0.5973,0.5923,0.5926,0.6066,0.6069,0.6072,0.6106,0,0,0,0,0,0,0.5761,0.5773,0.5795,0.5815,0.5825,0.589,0.5856,0.5857,0.5874,0.5871,0.5892,0.5894,0.5894,0.5942,0.595,0.5977,0.5929,0.6064,0.6068,0.6071,0.6102,0.6109,0.6116,0,0,0,0,0,0.5757,0.5804,0.5796,0.5806,0.5853,0.5892,0.5898,0.5897,0.5877,0.5899,0.5906,0.5893,0.597,0.5947,0.5956,0.5985,0.6062,0.6067,0.6071,0.6099,0.6108,0.6115,0,0,0,0,0,0,0.5788,0.5806,0.5798,0.5853,0.5871,0.5888,0.5916,0.5906,0.5931,0.5927,0.5924,0.5929,0.5975,0.5985,0.5959,0.6039,0.6013,0.6019,0.6031,0.604,0.6046,0.6042,0.5932,0,0,0,0,0,0.5801,0.5831,0.5846,0.5892,0.5901,0.5907,0.5924,0.5921,0.594,0.5948,0.5958,0.5977,0.6004,0.6023,0.605,0.6104,0.6107,0.6128,0.6135,0.614,0.6145,0.6171,0.618,0.6087,0.6087,0.6087,0,0,0.5828,0.5842,0.5861,0.5898,0.5912,0.5942,0.5914,0.5948,0.597,0.5953,0.5995,0.6004,0.6024,0.6073,0.6096,0.6083,0.6171,0.6145,0.615,0.6152,0.6176,0.6185,0.6193,0.609,0.6089,0.6089,0,0,0.5893,0.5907,0.5946,0.596,0.5981,0.5984,0.5993,0.6011,0.6016,0.6059,0.6046,0.6072,0.6121,0.6134,0.6148,0.6215,0.6203,0.6224,0.6258,0.6283,0.6291,0.6297,0.6318,0.6326,0.6229,0.6229,0.6229,0,0.5924,0.5969,0.5967,0.6001,0.6016,0.6002,0.604,0.6054,0.6082,0.6093,0.6078,0.6136,0.615,0.62,0.6216,0.6229,0.6237,0.6221,0.629,0.6296,0.6302,0.6322,0.633,0.6231,0.6231,0.6231,0.6231,0,0.6004,0.6036,0.6065,0.6091,0.611,0.6146,0.6148,0.6168,0.6163,0.6167,0.6209,0.6224,0.6252,0.6264,0.6261,0.6314,0.6304,0.629,0.6263,0.6313,0.6332,0.634,0.6234,0.6234,0.6233,0.6233,0,0,0.6089,0.6113,0.6123,0.6134,0.6155,0.6179,0.6213,0.624,0.6255,0.6275,0.6302,0.6343,0.6329,0.6344,0.6342,0.6365,0.6413,0.6347,0.6347,0.6356,0.6469,0.6478,0.6487,0.6406,0.6407,0.6409,0.6466,0,0.6153,0.6213,0.6211,0.6266,0.6293,0.6279,0.6309,0.6324,0.6329,0.6352,0.6357,0.6385,0.6366,0.6374,0.6396,0.6402,0.6435,0.6399,0.6429,0.643,0.6422,0.6497,0.6507,0.6561,0.6474,0.6475,0.6476,0,0.6235,0.6256,0.6314,0.6328,0.6339,0.6366,0.6388,0.6412,0.6428,0.643,0.6446,0.6439,0.6472,0.6446,0.649,0.6465,0.6478,0.6482,0.6484,0.6485,0.6455,0.6498,0.6578,0.6585,0.6488,0.6487,0.6486,0,0.6287,0.633,0.6369,0.6379,0.6398,0.6416,0.6425,0.644,0.6455,0.6475,0.6484,0.6508,0.6521,0.6539,0.6538,0.6519,0.6582,0.6556,0.6583,0.6582,0.6595,0.6594,0.6676,0.6607,0.6607,0.6607,0.6607,0,0.6357,0.6392,0.6393,0.6416,0.6455,0.6452,0.6489,0.6496,0.6509,0.6533,0.6523,0.6546,0.6545,0.6567,0.6567,0.6602,0.6609,0.6609,0.6608,0.6609,0.6608,0.6615,0.6611,0.6609,0.6609,0.6608,0.6608,0,0.6421,0.6423,0.6464,0.6478,0.6482,0.6509,0.652,0.6542,0.6546,0.6576,0.6583,0.6588,0.6614,0.6615,0.6646,0.6645,0.6687,0.6683,0.6681,0.6679,0.6705,0.6701,0.6793,0.6803,0.673,0.6731,0.6731,0,0.6464,0.649,0.6506,0.6521,0.653,0.6555,0.657,0.6568,0.6583,0.6603,0.6622,0.6647,0.6666,0.6708,0.6714,0.6736,0.6731,0.6761,0.6734,0.6733,0.6728,0.6725,0.6727,0.6766,0.6767,0.6768,0.6768,0,0.6539,0.6538,0.656,0.6581,0.6599,0.6616,0.6632,0.6645,0.6645,0.6663,0.6688,0.6703,0.6733,0.6757,0.6778,0.6786,0.6776,0.6777,0.6783,0.6783,0.6779,0.6779,0.6692,0.6774,0.6774,0.6773,0.6773,0.6773,0.6592,0.6613,0.6627,0.6651,0.6662,0.6677,0.6697,0.6702,0.6724,0.6747,0.6745,0.6773,0.6786,0.6814,0.6823,0.6844,0.6834,0.6844,0.6847,0.6849,0.685,0.6778,0.6849,0.6848,0.6848,0.6848,0.6848,0,0.6664,0.6671,0.6693,0.6715,0.6733,0.6723,0.6739,0.6755,0.6779,0.6793,0.6812,0.684,0.6862,0.687,0.6891,0.6906,0.6902,0.6912,0.6909,0.6911,0.686,0.685,0.6915,0.6915,0.6914,0.6914,0.6914,0.6914,0.6703,0.6738,0.6738,0.6778,0.6785,0.6812,0.6822,0.6834,0.6845,0.6877,0.6895,0.69,0.691,0.6932,0.6951,0.6953,0.696,0.6971,0.697,0.6922,0.6915,0.6908,0.6899,0.6973,0.6973,0.7019,0.702,0.702]}]]